Location: Unspecified
(0.0000°N, 0.0000°E)
Time: 21:57:41
(UTC+00:00)

Vanguard 1 Rocket - Pass Details

Date: 10 December 2017
Orbit: 656 x 4222 km, 34.3° (Epoch: 17 January)

Event Time Altitude Azimuth Distance (km) Brightness Sun altitude
Rises 21:30:36 0° 319° (NW) 6,867 11.9 -48.4°
Reaches altitude 10° 21:36:13 10° 331° (NNW) 6,350 11.6 -49.6°
Enters shadow 21:41:22 18° 344° (NNW) 6,032 11.3 -50.6°
